sat.trackr.live / text

‹ back to catalog

KAKUSHIN RISING OBJECT H

NORAD 68799 · 2026-088H

PAYLOAD ACTIVE UNKNOWN

§ Identity

Operator
Country
JPN
Launch date
2026-04-23
Launch site
RLLB
Launch vehicle
Mass (kg)
RCS (m²)

External: N2YO · Heavens-Above · Gunter

§ Orbital elements

Epoch: 2026-09-19T08:49:39.243648Z

Period
95.40 min
Inclination
97.5185°
Eccentricity
0.0020084
Mean motion
15.09401017 rev/d
Perigee alt
524.1 km
Apogee alt
551.9 km
Semi-major
6,916.2 km
B*
2.0242e-4
RAAN
49.7949°
Arg perigee
116.5360°
Mean anomaly
243.7931°
Rev number
2,250

§ Raw data

KAKUSHIN RISING OBJECT H1 68799U 26088H   26262.36781532  .00003186  00000+0  20242-3 0  99962 68799  97.5185  49.7949 0020084 116.5360 243.7931 15.09401017 22500

JSON: /api/v1/satellites/68799 · /tle

For live sub-satellite position, see the globe view (requires WebGL).

§ Visibility from observer

Set your observer location to see the next 7 days of passes ≥ 10°. The values pass through the URL so the page stays shareable.

No JS? Fill the form by hand. The geolocation button needs JavaScript.